Regional Weather Roundup
Issued by NWS

Home | Current Version | Previous Version | Text Only | Print | Product List | Glossary Off
Versions: 1 2 3 4 5 6 7 8 9 10 11 12 13 14 15 16 17 18 19 20 21 22 23 24 25 26 27 28

000
ASUS45 KCYS 250610
RWRWY

WYOMING REGIONAL WEATHER ROUNDUP
NATIONAL WEATHER SERVICE CHEYENNE WY
1200 AM MDT SAT OCT 25 2014

NOTE:  "FAIR" INDICATES FEW OR NO CLOUDS BELOW 12,000 FEET
WITH NO SIGNIFICANT WEATHER AND/OR OBSTRUCTIONS TO VISIBILITY.

WYZ001-250700-
YELLOWSTONE NATIONAL PARK

CITY           SKY/WX    TMP DP  RH WIND       PRES   REMARKS
LK YELLOWSTONE   N/A     28  24  85 CALM      30.28
6HR MIN TEMP:  28; 6HR MAX TEMP:  51;

W YELLOWSTONE  NOT AVBL

$$
WYZ002>013-054>058-071-098>099-250700-
NORTHERN WYOMING

CITY           SKY/WX    TMP DP  RH WIND       PRES   REMARKS
JACKSON        CLEAR     39  27  60 CALM      30.23S
CODY           CLEAR     39  32  75 CALM      30.12
GREYBULL       CLEAR     47  34  60 E3        30.09R
6HR MIN TEMP:  44; 6HR MAX TEMP:  68;

WORLAND        CLEAR     42  33  70 S7        30.11R
6HR MIN TEMP:  41; 6HR MAX TEMP:  71;

SHERIDAN       CLEAR     34  29  82 SE3       30.14S
6HR MIN TEMP:  33; 6HR MAX TEMP:  55;

BUFFALO        CLEAR     42  31  64 CALM      30.16S
6HR MIN TEMP:  38; 6HR MAX TEMP:  57;

GILLETTE       CLEAR     32  28  85 CALM      30.14S
6HR MIN TEMP:  31; 6HR MAX TEMP:  56;

HULETT         FAIR      46  30  53 E7        30.16
NEWCASTLE      FAIR      41  32  70 E3        30.15

$$
WYZ014>020-022>026-101>103-250700-
CENTRAL WYOMING

CITY           SKY/WX    TMP DP  RH WIND       PRES   REMARKS
BIG PINEY      PTCLDY    32  19  58 CALM      30.29S
6HR MIN TEMP:  31; 6HR MAX TEMP:  58; 6HR PCP: TRACE;

PINEDALE       CLEAR     28  23  80 NW6       30.30  WCI  22
DUBOIS         FAIR      39  19  45 NW12      30.24S WCI  32
LANDER         CLEAR     50  20  30 NW3       30.14F
6HR MIN TEMP:  49; 6HR MAX TEMP:  68;

RIVERTON       CLEAR     53  19  26 NW3       30.16S
6HR MIN TEMP:  49; 6HR MAX TEMP:  69;

CASPER         CLEAR     41  27  57 W9        30.18R
6HR MIN TEMP:  41; 6HR MAX TEMP:  68;

DOUGLAS        CLEAR     42  21  43 CALM      30.16R
6HR MIN TEMP:  39; 6HR MAX TEMP:  71;


$$
WYZ021-027>030-104>119-250700-
SOUTHERN WYOMING

CITY           SKY/WX    TMP DP  RH WIND       PRES   REMARKS
EVANSTON       PTCLDY    52  21  29 SE6       30.28S
6HR MIN TEMP:  52; 6HR MAX TEMP:  64;

KEMMERER       CLEAR     41  25  52 N6        30.29F
FORT BRIDGER   FAIR      47  19  31 SW5       30.30S
ROCK SPRINGS   PTCLDY    50  27  40 SE7       30.28S
6HR MIN TEMP:  47; 6HR MAX TEMP:  67;

DIXON          FAIR      38  31  75 SE3       30.33S
RAWLINS        CLEAR     51  24  34 SW12      30.28S
6HR MIN TEMP:  48; 6HR MAX TEMP:  63;

SARATOGA       FAIR      41  27  56 S6        30.32S
LARAMIE        CLEAR     45  23  42 S12       30.31F
6HR MIN TEMP:  39; 6HR MAX TEMP:  61;

CHEYENNE       CLEAR     45  26  47 W5        30.24S
6HR MIN TEMP:  45; 6HR MAX TEMP:  66;

TORRINGTON     CLEAR     47  29  49 N6        30.12S
6HR MIN TEMP:  45; 6HR MAX TEMP:  73;

PINE BLUFFS    FAIR      37  32  81 CALM      30.22R

$$



USA.gov is the U.S. government's official web portal to all federal, state and local government web resources and services.